GFSNW_prec_precacc_048.txt.gz
Total_Precipitation_Accumulation
0.13 0.10 0.05 0.02 0.01 0.01 0.00 0.00 0.00 0.01 0.01 0.01 0.00 0.00 0.00 0.00 0.00 0.00 0.00 0.00 0.00 0.00 0.00 0.00 0.00 0.00 0.00 0.00 0.00 0.00 0.00 0.00 0.00 0.00 0.00 0.00 0.00 0.00 0.00 0.01 0.02 0.01 0.03 0.01
0.20 0.17 0.11 0.02 0.01 0.00 0.00 0.00 0.03 0.09 0.01 0.01 0.00 0.00 0.00 0.00 0.00 0.00 0.00 0.00 0.00 0.00 0.00 0.00 0.00 0.00 0.00 0.00 0.00 0.00 0.00 0.00 0.00 0.00 0.00 0.00 0.00 0.00 0.00 0.00 0.00 0.01 0.03 0.00
0.24 0.18 0.13 0.02 0.00 0.00 0.00 0.01 0.03 0.04 0.01 0.00 0.00 0.00 0.00 0.00 0.00 0.00 0.00 0.00 0.00 0.00 0.00 0.00 0.00 0.00 0.00 0.00 0.00 0.00 0.00 0.00 0.00 0.00 0.00 0.00 0.00 0.00 0.00 0.00 0.00 0.00 0.00 0.00
0.27 0.17 0.10 0.01 0.00 0.00 0.01 0.02 0.00 0.00 0.01 0.00 0.00 0.00 0.00 0.00 0.00 0.00 0.00 0.00 0.00 0.00 0.00 0.00 0.00 0.00 0.00 0.00 0.00 0.00 0.00 0.00 0.00 0.00 0.00 0.00 0.00 0.00 0.00 0.00 0.00 0.00 0.00 0.00
0.24 0.14 0.05 0.01 0.00 0.00 0.03 0.03 0.01 0.00 0.00 0.00 0.00 0.00 0.00 0.00 0.00 0.00 0.00 0.00 0.00 0.00 0.00 0.00 0.00 0.00 0.00 0.00 0.00 0.00 0.00 0.00 0.00 0.00 0.00 0.00 0.00 0.00 0.00 0.00 0.00 0.00 0.00 0.00
0.17 0.09 0.04 0.02 0.01 0.00 0.02 0.02 0.00 0.00 0.00 0.00 0.00 0.00 0.00 0.00 0.00 0.00 0.00 0.00 0.00 0.00 0.00 0.00 0.00 0.00 0.00 0.00 0.00 0.00 0.00 0.00 0.01 0.01 0.00 0.01 0.01 0.00 0.00 0.00 0.00 0.00 0.00 0.00
0.10 0.06 0.02 0.02 0.01 0.00 0.01 0.01 0.01 0.02 0.01 0.00 0.00 0.00 0.00 0.00 0.00 0.00 0.00 0.00 0.00 0.00 0.00 0.00 0.00 0.00 0.00 0.00 0.00 0.00 0.00 0.00 0.01 0.01 0.02 0.07 0.00 0.00 0.00 0.00 0.00 0.00 0.00 0.00
0.05 0.04 0.01 0.01 0.00 0.00 0.03 0.03 0.02 0.01 0.04 0.00 0.00 0.00 0.00 0.00 0.00 0.00 0.00 0.00 0.00 0.00 0.00 0.00 0.00 0.00 0.00 0.00 0.00 0.00 0.00 0.00 0.01 0.02 0.03 0.02 0.00 0.00 0.00 0.00 0.00 0.00 0.00 0.02
0.03 0.01 0.00 0.00 0.00 0.00 0.06 0.06 0.03 0.01 0.03 0.00 0.00 0.00 0.00 0.00 0.01 0.01 0.01 0.00 0.00 0.00 0.01 0.01 0.02 0.00 0.00 0.00 0.00 0.00 0.00 0.00 0.02 0.03 0.05 0.04 0.00 0.00 0.00 0.00 0.01 0.01 0.04 0.09
0.01 0.01 0.00 0.00 0.00 0.01 0.07 0.07 0.05 0.04 0.04 0.00 0.00 0.00 0.00 0.00 0.01 0.03 0.02 0.02 0.01 0.00 0.02 0.05 0.02 0.01 0.00 0.01 0.01 0.01 0.01 0.00 0.00 0.01 0.04 0.01 0.00 0.00 0.01 0.14 0.17 0.06 0.12 0.17
0.01 0.01 0.01 0.00 0.00 0.02 0.06 0.09 0.10 0.14 0.08 0.00 0.00 0.00 0.00 0.00 0.02 0.04 0.04 0.03 0.00 0.01 0.01 0.02 0.00 0.01 0.01 0.01 0.00 0.01 0.03 0.09 0.10 0.07 0.16 0.06 0.00 0.03 0.15 0.18 0.08 0.08 0.07 0.06
0.02 0.02 0.01 0.00 0.00 0.02 0.08 0.08 0.13 0.12 0.15 0.02 0.00 0.00 0.00 0.00 0.00 0.04 0.08 0.04 0.03 0.06 0.03 0.02 0.01 0.01 0.02 0.00 0.02 0.00 0.01 0.01 0.02 0.04 0.03 0.00 0.00 0.03 0.02 0.04 0.10 0.07 0.07 0.09
0.02 0.02 0.00 0.00 0.02 0.05 0.07 0.04 0.11 0.07 0.11 0.04 0.02 0.00 0.00 0.00 0.00 0.02 0.11 0.04 0.03 0.07 0.09 0.16 0.09 0.13 0.06 0.05 0.04 0.01 0.04 0.02 0.02 0.02 0.01 0.00 0.01 0.01 0.02 0.06 0.08 0.13 0.20 0.24
0.03 0.00 0.00 0.01 0.00 0.02 0.05 0.05 0.09 0.17 0.24 0.20 0.04 0.00 0.00 0.00 0.00 0.00 0.01 0.04 0.10 0.17 0.25 0.24 0.19 0.24 0.12 0.07 0.02 0.05 0.08 0.06 0.03 0.05 0.01 0.02 0.04 0.07 0.14 0.21 0.31 0.29 0.19 0.14
0.07 0.05 0.03 0.01 0.02 0.04 0.08 0.09 0.06 0.13 0.26 0.27 0.12 0.04 0.01 0.00 0.00 0.00 0.01 0.06 0.10 0.21 0.21 0.14 0.05 0.02 0.04 0.06 0.09 0.13 0.06 0.03 0.06 0.10 0.06 0.23 0.22 0.33 0.42 0.38 0.27 0.15 0.09 0.04
0.11 0.08 0.06 0.09 0.15 0.31 0.68 0.62 0.18 0.08 0.18 0.66 0.42 0.08 0.03 0.01 0.01 0.00 0.00 0.01 0.10 0.24 0.14 0.04 0.01 0.01 0.11 0.26 0.14 0.02 0.00 0.01 0.11 0.16 0.13 0.22 0.32 0.34 0.22 0.20 0.13 0.04 0.01 0.00
0.10 0.11 0.17 0.27 0.49 0.79 0.91 0.64 0.19 0.05 0.20 0.98 0.72 0.16 0.04 0.02 0.02 0.02 0.02 0.04 0.09 0.12 0.12 0.07 0.02 0.03 0.30 0.41 0.16 0.01 0.00 0.01 0.04 0.05 0.10 0.20 0.20 0.19 0.14 0.06 0.01 0.00 0.00 0.00
0.13 0.16 0.24 0.51 1.16 1.34 1.00 0.64 0.60 0.44 0.45 0.71 0.67 0.21 0.03 0.01 0.01 0.02 0.01 0.01 0.02 0.06 0.08 0.06 0.05 0.05 0.16 0.26 0.04 0.00 0.00 0.00 0.00 0.01 0.03 0.09 0.04 0.01 0.01 0.00 0.00 0.00 0.01 0.04
0.27 0.43 0.66 0.76 0.64 0.50 0.54 0.74 0.80 0.94 1.01 1.11 0.60 0.09 0.04 0.05 0.04 0.04 0.04 0.07 0.14 0.10 0.06 0.03 0.06 0.04 0.06 0.02 0.00 0.00 0.00 0.00 0.01 0.00 0.00 0.00 0.00 0.00 0.01 0.01 0.03 0.05 0.04 0.00
0.77 0.78 0.77 0.80 0.61 0.62 0.46 0.59 0.86 1.27 1.35 1.11 0.52 0.13 0.10 0.06 0.07 0.13 0.17 0.29 0.23 0.18 0.02 0.03 0.06 0.04 0.00 0.00 0.00 0.00 0.00 0.01 0.00 0.00 0.01 0.03 0.04 0.07 0.07 0.06 0.03 0.00 0.00 0.00
1.66 1.28 1.00 0.68 0.66 0.45 0.52 0.63 0.62 0.62 0.48 0.34 0.17 0.08 0.08 0.08 0.15 0.30 0.37 0.31 0.15 0.16 0.02 0.09 0.07 0.02 0.00 0.00 0.00 0.00 0.00 0.00 0.00 0.01 0.02 0.06 0.11 0.06 0.01 0.00 0.00 0.00 0.00 0.00
1.42 0.94 0.79 0.86 0.72 0.62 0.69 0.77 0.50 0.22 0.10 0.04 0.03 0.03 0.06 0.17 0.22 0.32 0.43 0.24 0.18 0.11 0.02 0.09 0.07 0.01 0.00 0.00 0.00 0.00 0.00 0.01 0.03 0.07 0.08 0.04 0.00 0.00 0.00 0.00 0.00 0.00 0.00 0.00
1.26 1.36 1.50 1.33 1.41 1.09 0.73 0.34 0.18 0.10 0.04 0.04 0.02 0.05 0.07 0.10 0.15 0.37 0.42 0.43 0.33 0.14 0.19 0.10 0.04 0.02 0.01 0.01 0.02 0.02 0.02 0.02 0.02 0.00 0.00 0.00 0.00 0.00 0.00 0.00 0.00 0.00 0.00 0.00
1.35 1.74 1.87 1.40 1.26 0.75 0.41 0.13 0.05 0.05 0.06 0.04 0.03 0.07 0.09 0.13 0.20 0.37 0.47 0.54 0.30 0.32 0.16 0.08 0.11 0.09 0.07 0.04 0.02 0.00 0.00 0.00 0.00 0.00 0.00 0.00 0.00 0.00 0.00 0.00 0.00 0.00 0.00 0.00
0.63 0.70 0.88 0.77 0.53 0.30 0.17 0.11 0.08 0.08 0.09 0.10 0.15 0.25 0.22 0.24 0.44 0.50 0.41 0.37 0.27 0.21 0.24 0.33 0.30 0.09 0.01 0.00 0.00 0.00 0.00 0.00 0.00 0.00 0.00 0.00 0.00 0.00 0.00 0.00 0.00 0.00 0.00 0.00
0.22 0.30 0.35 0.34 0.28 0.30 0.24 0.22 0.21 0.22 0.27 0.28 0.32 0.34 0.36 0.43 0.33 0.26 0.27 0.27 0.26 0.32 0.17 0.14 0.09 0.08 0.02 0.00 0.00 0.00 0.00 0.00 0.00 0.00 0.00 0.00 0.00 0.00 0.01 0.01 0.01 0.02 0.01 0.01
0.19 0.13 0.12 0.13 0.12 0.16 0.18 0.20 0.22 0.22 0.22 0.22 0.21 0.18 0.21 0.23 0.22 0.19 0.17 0.22 0.14 0.04 0.03 0.07 0.05 0.03 0.00 0.00 0.00 0.01 0.00 0.00 0.00 0.00 0.00 0.01 0.01 0.03 0.04 0.04 0.02 0.01 0.01 0.02

GFSNW_prec_precacc_051.txt.gz
Total_Precipitation_Accumulation
0.13 0.11 0.10 0.13 0.06 0.01 0.00 0.00 0.00 0.02 0.01 0.01 0.00 0.00 0.00 0.00 0.00 0.00 0.00 0.00 0.00 0.00 0.00 0.00 0.00 0.00 0.00 0.00 0.00 0.00 0.00 0.00 0.00 0.00 0.00 0.00 0.00 0.00 0.00 0.01 0.02 0.01 0.03 0.01
0.20 0.20 0.20 0.17 0.07 0.00 0.00 0.00 0.05 0.11 0.02 0.02 0.01 0.00 0.00 0.00 0.00 0.00 0.00 0.00 0.00 0.00 0.00 0.00 0.00 0.00 0.00 0.00 0.00 0.00 0.00 0.00 0.00 0.00 0.00 0.00 0.00 0.00 0.00 0.00 0.00 0.01 0.03 0.00
0.24 0.23 0.31 0.18 0.07 0.00 0.00 0.01 0.08 0.07 0.02 0.00 0.00 0.00 0.00 0.00 0.00 0.00 0.00 0.00 0.00 0.00 0.00 0.00 0.00 0.00 0.00 0.00 0.00 0.00 0.00 0.00 0.00 0.00 0.00 0.00 0.00 0.00 0.00 0.00 0.00 0.00 0.00 0.00
0.28 0.22 0.31 0.19 0.07 0.00 0.03 0.04 0.00 0.01 0.02 0.00 0.00 0.00 0.00 0.00 0.00 0.00 0.00 0.00 0.00 0.00 0.00 0.00 0.00 0.00 0.00 0.00 0.00 0.00 0.00 0.00 0.00 0.00 0.00 0.00 0.00 0.00 0.00 0.00 0.00 0.00 0.00 0.00
0.27 0.21 0.32 0.20 0.09 0.01 0.04 0.05 0.01 0.00 0.00 0.00 0.00 0.00 0.00 0.00 0.00 0.00 0.00 0.00 0.00 0.00 0.00 0.00 0.00 0.00 0.00 0.00 0.00 0.00 0.00 0.00 0.00 0.00 0.00 0.00 0.00 0.00 0.00 0.00 0.00 0.00 0.00 0.00
0.25 0.19 0.30 0.22 0.07 0.00 0.03 0.07 0.01 0.00 0.01 0.00 0.00 0.00 0.00 0.00 0.00 0.00 0.00 0.00 0.00 0.00 0.00 0.00 0.00 0.00 0.00 0.00 0.00 0.00 0.00 0.00 0.01 0.01 0.00 0.01 0.01 0.00 0.00 0.00 0.00 0.00 0.00 0.00
0.22 0.16 0.22 0.24 0.06 0.00 0.02 0.04 0.01 0.03 0.03 0.00 0.00 0.00 0.00 0.00 0.00 0.00 0.00 0.00 0.00 0.00 0.00 0.00 0.00 0.00 0.00 0.00 0.00 0.00 0.00 0.00 0.01 0.01 0.02 0.07 0.00 0.00 0.00 0.00 0.00 0.00 0.00 0.00
0.18 0.13 0.12 0.14 0.04 0.00 0.07 0.10 0.04 0.02 0.05 0.00 0.00 0.00 0.00 0.00 0.00 0.00 0.00 0.00 0.00 0.00 0.00 0.00 0.00 0.00 0.00 0.00 0.00 0.00 0.00 0.00 0.01 0.02 0.03 0.02 0.00 0.00 0.00 0.00 0.00 0.00 0.00 0.02
0.13 0.08 0.06 0.04 0.01 0.00 0.10 0.13 0.05 0.02 0.03 0.00 0.00 0.00 0.00 0.00 0.01 0.01 0.01 0.00 0.00 0.00 0.01 0.01 0.02 0.00 0.00 0.00 0.00 0.00 0.00 0.00 0.02 0.03 0.05 0.04 0.00 0.00 0.00 0.00 0.01 0.01 0.04 0.09
0.10 0.05 0.03 0.01 0.00 0.01 0.11 0.12 0.07 0.05 0.04 0.00 0.00 0.00 0.00 0.00 0.01 0.03 0.02 0.02 0.01 0.00 0.02 0.06 0.02 0.01 0.00 0.01 0.01 0.01 0.01 0.00 0.00 0.01 0.04 0.01 0.00 0.00 0.01 0.14 0.17 0.06 0.12 0.17
0.08 0.04 0.01 0.00 0.00 0.02 0.08 0.12 0.10 0.17 0.10 0.00 0.00 0.00 0.00 0.00 0.02 0.04 0.04 0.03 0.00 0.01 0.02 0.04 0.01 0.01 0.01 0.01 0.00 0.01 0.03 0.09 0.10 0.07 0.16 0.06 0.00 0.03 0.15 0.18 0.08 0.08 0.07 0.06
0.08 0.03 0.01 0.01 0.00 0.03 0.12 0.13 0.14 0.12 0.16 0.03 0.00 0.00 0.00 0.00 0.00 0.04 0.08 0.04 0.03 0.06 0.03 0.02 0.02 0.01 0.02 0.00 0.02 0.00 0.01 0.01 0.02 0.04 0.03 0.00 0.00 0.03 0.02 0.04 0.10 0.07 0.07 0.09
0.05 0.03 0.01 0.00 0.02 0.06 0.13 0.09 0.12 0.08 0.12 0.05 0.02 0.00 0.00 0.00 0.00 0.02 0.11 0.04 0.03 0.07 0.09 0.16 0.09 0.14 0.06 0.05 0.04 0.01 0.04 0.02 0.02 0.02 0.01 0.00 0.01 0.01 0.02 0.06 0.08 0.13 0.20 0.24
0.05 0.00 0.01 0.01 0.01 0.05 0.15 0.10 0.11 0.19 0.26 0.23 0.04 0.00 0.00 0.00 0.00 0.00 0.01 0.04 0.10 0.17 0.25 0.24 0.19 0.25 0.12 0.07 0.02 0.05 0.08 0.06 0.03 0.05 0.01 0.02 0.04 0.07 0.14 0.21 0.31 0.29 0.19 0.14
0.07 0.05 0.03 0.02 0.03 0.08 0.17 0.18 0.12 0.15 0.29 0.29 0.12 0.04 0.01 0.00 0.00 0.00 0.01 0.06 0.10 0.21 0.21 0.15 0.05 0.02 0.04 0.06 0.09 0.13 0.06 0.03 0.06 0.10 0.06 0.23 0.22 0.33 0.42 0.38 0.27 0.15 0.09 0.04
0.12 0.08 0.06 0.09 0.16 0.35 0.73 0.69 0.22 0.12 0.21 0.67 0.43 0.08 0.03 0.01 0.01 0.00 0.00 0.01 0.10 0.24 0.14 0.04 0.01 0.01 0.11 0.26 0.14 0.02 0.00 0.01 0.11 0.16 0.13 0.22 0.32 0.34 0.22 0.20 0.13 0.04 0.01 0.00
0.12 0.11 0.17 0.27 0.52 0.84 0.95 0.68 0.20 0.06 0.20 1.03 0.75 0.19 0.06 0.03 0.02 0.02 0.02 0.04 0.09 0.12 0.12 0.07 0.02 0.03 0.30 0.41 0.16 0.01 0.00 0.01 0.04 0.05 0.10 0.20 0.20 0.19 0.14 0.06 0.01 0.00 0.00 0.00
0.17 0.18 0.26 0.54 1.22 1.39 1.03 0.65 0.60 0.44 0.45 0.75 0.72 0.22 0.06 0.02 0.03 0.03 0.02 0.02 0.02 0.06 0.08 0.06 0.05 0.05 0.16 0.26 0.04 0.00 0.00 0.00 0.00 0.01 0.03 0.09 0.04 0.01 0.01 0.00 0.00 0.00 0.01 0.04
0.33 0.48 0.71 0.79 0.68 0.51 0.55 0.74 0.80 0.94 1.01 1.11 0.61 0.10 0.06 0.07 0.07 0.06 0.05 0.09 0.15 0.10 0.06 0.03 0.06 0.04 0.06 0.02 0.00 0.00 0.00 0.00 0.01 0.00 0.00 0.00 0.00 0.00 0.01 0.01 0.03 0.05 0.04 0.00
0.78 0.79 0.79 0.82 0.62 0.63 0.47 0.59 0.86 1.27 1.35 1.11 0.53 0.13 0.10 0.07 0.09 0.14 0.18 0.30 0.23 0.18 0.02 0.03 0.07 0.04 0.00 0.00 0.00 0.00 0.00 0.01 0.00 0.00 0.01 0.03 0.04 0.07 0.07 0.06 0.03 0.00 0.00 0.00
1.67 1.28 1.00 0.68 0.66 0.46 0.52 0.64 0.62 0.63 0.48 0.34 0.17 0.08 0.08 0.08 0.16 0.30 0.37 0.31 0.15 0.16 0.02 0.09 0.08 0.02 0.00 0.00 0.00 0.00 0.00 0.00 0.00 0.01 0.02 0.06 0.11 0.06 0.01 0.00 0.00 0.00 0.00 0.00
1.42 0.94 0.79 0.86 0.72 0.62 0.69 0.77 0.50 0.22 0.10 0.04 0.03 0.03 0.06 0.17 0.22 0.32 0.43 0.24 0.18 0.11 0.02 0.10 0.07 0.01 0.00 0.00 0.00 0.00 0.00 0.01 0.03 0.07 0.08 0.04 0.00 0.00 0.00 0.00 0.00 0.00 0.00 0.00
1.26 1.36 1.51 1.34 1.42 1.09 0.74 0.34 0.18 0.10 0.04 0.04 0.02 0.05 0.07 0.10 0.15 0.38 0.42 0.44 0.33 0.14 0.19 0.10 0.04 0.02 0.01 0.02 0.02 0.02 0.02 0.02 0.02 0.00 0.00 0.00 0.00 0.00 0.00 0.00 0.00 0.00 0.00 0.00
1.35 1.75 1.88 1.41 1.26 0.75 0.41 0.13 0.05 0.05 0.06 0.04 0.03 0.07 0.09 0.13 0.20 0.37 0.47 0.55 0.30 0.33 0.16 0.08 0.11 0.10 0.08 0.04 0.02 0.00 0.00 0.00 0.00 0.00 0.00 0.00 0.00 0.00 0.00 0.00 0.00 0.00 0.00 0.00
0.65 0.72 0.89 0.78 0.53 0.30 0.17 0.11 0.08 0.08 0.09 0.10 0.15 0.25 0.22 0.24 0.45 0.50 0.41 0.38 0.27 0.21 0.24 0.34 0.31 0.09 0.01 0.00 0.00 0.00 0.00 0.00 0.00 0.00 0.00 0.00 0.00 0.00 0.00 0.00 0.00 0.00 0.00 0.00
0.26 0.34 0.36 0.35 0.29 0.31 0.24 0.22 0.21 0.22 0.27 0.28 0.32 0.34 0.36 0.43 0.33 0.26 0.27 0.28 0.26 0.32 0.17 0.14 0.09 0.08 0.02 0.00 0.00 0.00 0.00 0.00 0.00 0.00 0.00 0.00 0.00 0.00 0.01 0.01 0.01 0.02 0.01 0.01
0.22 0.15 0.13 0.13 0.13 0.16 0.18 0.20 0.22 0.22 0.22 0.22 0.21 0.18 0.21 0.23 0.23 0.19 0.17 0.23 0.14 0.04 0.04 0.08 0.06 0.03 0.00 0.00 0.00 0.01 0.00 0.00 0.00 0.00 0.00 0.01 0.01 0.03 0.04 0.04 0.02 0.01 0.01 0.02

GFSNW_prec_precacc_057.txt.gz
Total_Precipitation_Accumulation
0.18 0.16 0.12 0.14 0.10 0.10 0.20 0.06 0.02 0.03 0.01 0.01 0.01 0.00 0.00 0.00 0.00 0.00 0.00 0.00 0.00 0.00 0.00 0.00 0.00 0.00 0.00 0.00 0.00 0.00 0.00 0.00 0.00 0.01 0.00 0.00 0.00 0.00 0.00 0.01 0.02 0.01 0.03 0.01
0.27 0.25 0.23 0.19 0.13 0.14 0.14 0.07 0.12 0.25 0.04 0.02 0.01 0.00 0.00 0.00 0.00 0.00 0.00 0.00 0.00 0.00 0.00 0.00 0.00 0.00 0.00 0.00 0.00 0.00 0.00 0.00 0.00 0.00 0.00 0.00 0.00 0.00 0.00 0.00 0.00 0.01 0.03 0.00
0.33 0.29 0.35 0.21 0.14 0.16 0.14 0.04 0.15 0.25 0.13 0.00 0.00 0.00 0.00 0.00 0.00 0.00 0.00 0.00 0.00 0.00 0.00 0.00 0.00 0.00 0.00 0.00 0.00 0.00 0.00 0.00 0.00 0.00 0.00 0.00 0.00 0.00 0.00 0.00 0.00 0.00 0.00 0.00
0.38 0.32 0.37 0.23 0.15 0.21 0.26 0.10 0.01 0.03 0.05 0.01 0.01 0.00 0.00 0.00 0.00 0.00 0.00 0.00 0.00 0.00 0.00 0.00 0.00 0.00 0.00 0.00 0.00 0.00 0.00 0.00 0.00 0.00 0.00 0.00 0.00 0.00 0.00 0.00 0.00 0.00 0.00 0.00
0.38 0.32 0.41 0.24 0.21 0.31 0.39 0.10 0.01 0.01 0.01 0.00 0.00 0.00 0.00 0.00 0.00 0.00 0.00 0.00 0.00 0.00 0.00 0.00 0.00 0.00 0.00 0.00 0.00 0.00 0.00 0.00 0.00 0.00 0.00 0.00 0.00 0.00 0.00 0.00 0.00 0.00 0.00 0.00
0.35 0.28 0.39 0.27 0.30 0.47 0.26 0.09 0.02 0.01 0.02 0.00 0.00 0.00 0.00 0.00 0.00 0.00 0.00 0.00 0.00 0.00 0.00 0.00 0.00 0.00 0.00 0.00 0.00 0.00 0.00 0.00 0.01 0.01 0.00 0.01 0.01 0.00 0.00 0.00 0.00 0.00 0.00 0.00
0.31 0.25 0.31 0.32 0.33 0.31 0.08 0.05 0.08 0.13 0.07 0.01 0.00 0.00 0.00 0.00 0.00 0.00 0.00 0.00 0.00 0.00 0.00 0.00 0.00 0.00 0.00 0.00 0.00 0.00 0.00 0.00 0.01 0.01 0.02 0.07 0.00 0.00 0.00 0.00 0.00 0.00 0.00 0.00
0.24 0.21 0.21 0.25 0.25 0.14 0.11 0.14 0.18 0.17 0.09 0.00 0.00 0.00 0.00 0.00 0.00 0.00 0.00 0.00 0.00 0.00 0.00 0.02 0.04 0.01 0.01 0.01 0.01 0.00 0.00 0.00 0.01 0.02 0.03 0.02 0.00 0.00 0.00 0.00 0.00 0.00 0.00 0.02
0.20 0.15 0.15 0.15 0.16 0.10 0.15 0.18 0.21 0.30 0.14 0.02 0.00 0.00 0.00 0.00 0.02 0.03 0.06 0.03 0.03 0.01 0.01 0.01 0.03 0.01 0.00 0.00 0.00 0.00 0.00 0.00 0.02 0.03 0.05 0.04 0.00 0.00 0.00 0.00 0.01 0.01 0.04 0.09
0.17 0.09 0.10 0.09 0.08 0.08 0.16 0.20 0.25 0.41 0.26 0.01 0.00 0.00 0.00 0.00 0.01 0.06 0.03 0.13 0.10 0.06 0.05 0.09 0.03 0.01 0.00 0.01 0.01 0.01 0.01 0.00 0.00 0.01 0.04 0.01 0.00 0.00 0.01 0.14 0.17 0.06 0.12 0.17
0.12 0.07 0.07 0.06 0.04 0.06 0.14 0.22 0.29 0.42 0.41 0.03 0.00 0.00 0.00 0.01 0.03 0.08 0.05 0.05 0.09 0.10 0.08 0.08 0.02 0.02 0.01 0.01 0.00 0.01 0.03 0.09 0.10 0.07 0.16 0.06 0.00 0.03 0.15 0.18 0.08 0.08 0.07 0.06
0.12 0.07 0.06 0.04 0.02 0.05 0.15 0.25 0.30 0.31 0.58 0.24 0.04 0.01 0.00 0.00 0.00 0.05 0.09 0.04 0.03 0.07 0.04 0.02 0.03 0.02 0.02 0.00 0.02 0.00 0.01 0.01 0.02 0.04 0.03 0.00 0.00 0.03 0.02 0.04 0.10 0.07 0.07 0.09
0.10 0.06 0.06 0.03 0.03 0.08 0.16 0.25 0.34 0.55 0.50 0.30 0.16 0.03 0.00 0.00 0.00 0.05 0.14 0.04 0.03 0.07 0.09 0.16 0.09 0.14 0.06 0.05 0.04 0.01 0.04 0.02 0.02 0.02 0.01 0.00 0.01 0.01 0.02 0.06 0.08 0.13 0.20 0.24
0.10 0.05 0.05 0.03 0.02 0.06 0.22 0.29 0.35 0.83 0.89 0.48 0.28 0.03 0.00 0.01 0.02 0.01 0.11 0.10 0.11 0.17 0.25 0.24 0.19 0.25 0.12 0.07 0.02 0.05 0.08 0.06 0.03 0.05 0.01 0.02 0.04 0.07 0.14 0.21 0.31 0.29 0.19 0.14
0.11 0.09 0.05 0.03 0.04 0.11 0.36 0.38 0.35 0.81 0.84 0.49 0.21 0.06 0.01 0.00 0.01 0.02 0.15 0.31 0.17 0.21 0.22 0.16 0.06 0.02 0.04 0.06 0.09 0.13 0.06 0.03 0.06 0.10 0.06 0.23 0.22 0.33 0.42 0.38 0.27 0.15 0.09 0.04
0.16 0.12 0.09 0.12 0.20 0.49 1.14 0.93 0.40 0.68 0.67 0.83 0.45 0.09 0.03 0.02 0.01 0.02 0.03 0.09 0.15 0.25 0.14 0.04 0.01 0.01 0.11 0.26 0.14 0.02 0.00 0.01 0.11 0.16 0.13 0.22 0.32 0.34 0.22 0.20 0.13 0.04 0.01 0.00
0.18 0.16 0.21 0.33 0.60 1.15 1.42 0.90 0.32 0.33 0.68 1.21 0.80 0.21 0.06 0.04 0.02 0.03 0.05 0.08 0.12 0.14 0.12 0.07 0.02 0.03 0.30 0.41 0.16 0.01 0.00 0.01 0.04 0.05 0.10 0.20 0.20 0.19 0.14 0.06 0.01 0.00 0.00 0.00
0.25 0.23 0.32 0.63 1.46 1.82 1.42 0.90 0.65 0.51 0.57 0.81 0.86 0.25 0.07 0.03 0.04 0.04 0.02 0.03 0.05 0.07 0.09 0.07 0.06 0.05 0.16 0.26 0.04 0.00 0.00 0.00 0.00 0.01 0.03 0.09 0.04 0.01 0.01 0.00 0.00 0.00 0.01 0.04
0.44 0.59 0.86 1.08 1.23 1.09 0.90 0.90 0.83 0.95 1.02 1.13 0.73 0.26 0.08 0.08 0.08 0.07 0.07 0.10 0.16 0.11 0.06 0.03 0.06 0.04 0.06 0.02 0.00 0.00 0.00 0.00 0.01 0.00 0.00 0.00 0.00 0.00 0.01 0.01 0.03 0.05 0.04 0.00
0.95 1.02 1.15 1.41 1.30 0.97 0.66 0.69 0.94 1.29 1.35 1.11 0.54 0.27 0.27 0.10 0.12 0.18 0.22 0.33 0.27 0.20 0.04 0.05 0.07 0.04 0.01 0.00 0.00 0.00 0.00 0.01 0.00 0.00 0.01 0.03 0.04 0.07 0.07 0.06 0.03 0.00 0.00 0.00
1.92 1.58 1.36 1.03 1.09 0.67 0.69 0.71 0.69 0.65 0.48 0.34 0.17 0.10 0.20 0.17 0.21 0.36 0.42 0.36 0.20 0.19 0.03 0.11 0.08 0.02 0.01 0.01 0.00 0.00 0.00 0.00 0.00 0.01 0.02 0.06 0.11 0.06 0.01 0.00 0.00 0.00 0.00 0.00
1.56 1.01 0.85 0.99 1.00 0.81 0.81 0.80 0.51 0.22 0.10 0.04 0.03 0.03 0.12 0.29 0.25 0.37 0.47 0.28 0.19 0.12 0.03 0.10 0.08 0.01 0.00 0.00 0.00 0.00 0.00 0.01 0.03 0.07 0.08 0.04 0.00 0.00 0.00 0.00 0.00 0.00 0.00 0.00
1.26 1.38 1.56 1.44 1.58 1.22 0.77 0.34 0.18 0.10 0.04 0.04 0.02 0.05 0.08 0.16 0.17 0.40 0.46 0.48 0.37 0.15 0.19 0.10 0.04 0.02 0.01 0.02 0.02 0.02 0.02 0.02 0.02 0.00 0.00 0.00 0.00 0.00 0.00 0.00 0.00 0.00 0.00 0.00
1.36 1.77 1.92 1.47 1.32 0.77 0.41 0.13 0.05 0.05 0.06 0.05 0.03 0.07 0.09 0.13 0.20 0.38 0.48 0.55 0.31 0.34 0.17 0.08 0.11 0.10 0.08 0.04 0.02 0.00 0.00 0.00 0.00 0.00 0.00 0.00 0.00 0.00 0.00 0.00 0.00 0.00 0.00 0.00
0.66 0.74 0.92 0.79 0.54 0.30 0.18 0.11 0.08 0.09 0.09 0.10 0.15 0.25 0.23 0.24 0.45 0.50 0.41 0.38 0.28 0.21 0.24 0.34 0.31 0.09 0.01 0.00 0.00 0.00 0.00 0.00 0.00 0.00 0.00 0.00 0.00 0.00 0.00 0.00 0.00 0.00 0.00 0.00
0.29 0.36 0.39 0.35 0.29 0.31 0.24 0.22 0.21 0.22 0.27 0.28 0.33 0.34 0.36 0.44 0.33 0.26 0.27 0.28 0.27 0.33 0.17 0.14 0.09 0.08 0.02 0.00 0.00 0.00 0.00 0.00 0.00 0.00 0.00 0.00 0.00 0.00 0.01 0.01 0.01 0.02 0.01 0.01
0.33 0.21 0.16 0.14 0.13 0.17 0.18 0.20 0.22 0.22 0.22 0.22 0.21 0.18 0.21 0.23 0.23 0.19 0.17 0.23 0.14 0.05 0.04 0.09 0.06 0.03 0.00 0.00 0.00 0.01 0.00 0.00 0.00 0.00 0.00 0.01 0.01 0.03 0.04 0.04 0.02 0.01 0.01 0.02

GFSNW_prec_precacc_063.txt.gz
Total_Precipitation_Accumulation
0.21 0.19 0.18 0.19 0.16 0.19 0.28 0.14 0.06 0.04 0.02 0.09 0.03 0.00 0.00 0.00 0.00 0.00 0.00 0.00 0.00 0.00 0.00 0.00 0.00 0.00 0.00 0.00 0.00 0.00 0.00 0.00 0.00 0.01 0.00 0.00 0.00 0.00 0.01 0.01 0.02 0.01 0.03 0.01
0.30 0.29 0.28 0.24 0.18 0.20 0.20 0.15 0.16 0.29 0.05 0.05 0.01 0.00 0.00 0.00 0.00 0.00 0.00 0.00 0.00 0.00 0.00 0.00 0.00 0.00 0.00 0.00 0.00 0.00 0.00 0.00 0.00 0.00 0.00 0.01 0.00 0.00 0.00 0.00 0.00 0.01 0.03 0.00
0.37 0.33 0.39 0.26 0.20 0.23 0.24 0.14 0.24 0.38 0.17 0.00 0.00 0.00 0.00 0.00 0.00 0.00 0.00 0.00 0.00 0.00 0.00 0.00 0.00 0.00 0.00 0.00 0.00 0.00 0.00 0.00 0.00 0.00 0.00 0.00 0.00 0.00 0.00 0.00 0.00 0.00 0.00 0.00
0.41 0.37 0.43 0.29 0.22 0.30 0.50 0.23 0.05 0.06 0.09 0.01 0.01 0.00 0.00 0.00 0.00 0.00 0.00 0.00 0.00 0.00 0.00 0.00 0.00 0.00 0.00 0.00 0.00 0.00 0.00 0.00 0.00 0.00 0.00 0.00 0.00 0.00 0.00 0.00 0.00 0.00 0.00 0.00
0.40 0.35 0.48 0.36 0.30 0.49 0.77 0.26 0.04 0.02 0.01 0.00 0.00 0.00 0.00 0.00 0.00 0.00 0.00 0.00 0.00 0.00 0.00 0.00 0.00 0.00 0.00 0.00 0.00 0.00 0.00 0.00 0.00 0.00 0.00 0.00 0.00 0.00 0.00 0.00 0.00 0.00 0.00 0.00
0.36 0.30 0.44 0.45 0.49 0.86 0.74 0.17 0.02 0.02 0.03 0.01 0.00 0.00 0.00 0.00 0.00 0.00 0.00 0.00 0.00 0.00 0.00 0.00 0.00 0.00 0.00 0.00 0.00 0.00 0.00 0.00 0.01 0.01 0.00 0.01 0.01 0.00 0.00 0.00 0.00 0.00 0.00 0.00
0.31 0.25 0.36 0.49 0.56 0.73 0.39 0.07 0.09 0.17 0.08 0.02 0.00 0.00 0.00 0.00 0.00 0.00 0.00 0.00 0.00 0.00 0.00 0.00 0.00 0.00 0.00 0.01 0.02 0.01 0.00 0.00 0.01 0.01 0.02 0.07 0.00 0.00 0.00 0.00 0.00 0.00 0.00 0.00
0.25 0.22 0.27 0.43 0.39 0.45 0.34 0.16 0.20 0.25 0.13 0.01 0.01 0.00 0.00 0.00 0.00 0.00 0.00 0.00 0.00 0.00 0.01 0.03 0.06 0.02 0.04 0.04 0.04 0.02 0.00 0.00 0.01 0.02 0.03 0.02 0.00 0.00 0.00 0.00 0.00 0.00 0.00 0.02
0.21 0.17 0.20 0.25 0.23 0.33 0.32 0.22 0.27 0.45 0.23 0.03 0.00 0.00 0.00 0.00 0.02 0.03 0.06 0.03 0.03 0.01 0.02 0.04 0.03 0.01 0.00 0.00 0.00 0.00 0.00 0.01 0.02 0.03 0.05 0.04 0.00 0.00 0.00 0.00 0.01 0.01 0.04 0.09
0.18 0.14 0.14 0.15 0.14 0.28 0.32 0.27 0.39 0.62 0.35 0.07 0.00 0.00 0.00 0.00 0.01 0.07 0.04 0.13 0.11 0.12 0.14 0.15 0.04 0.01 0.00 0.01 0.01 0.01 0.01 0.01 0.01 0.01 0.04 0.01 0.00 0.00 0.01 0.14 0.17 0.06 0.12 0.17
0.16 0.11 0.10 0.10 0.10 0.19 0.26 0.28 0.49 0.66 0.53 0.11 0.07 0.00 0.00 0.01 0.03 0.08 0.05 0.07 0.10 0.17 0.22 0.14 0.03 0.02 0.01 0.01 0.00 0.01 0.03 0.09 0.10 0.07 0.16 0.06 0.00 0.03 0.15 0.18 0.08 0.08 0.07 0.06
0.17 0.12 0.12 0.10 0.07 0.13 0.23 0.31 0.45 0.52 0.78 0.31 0.12 0.02 0.00 0.00 0.00 0.06 0.10 0.05 0.04 0.10 0.10 0.07 0.04 0.02 0.02 0.00 0.02 0.00 0.01 0.01 0.02 0.04 0.03 0.00 0.00 0.03 0.02 0.04 0.10 0.07 0.07 0.09
0.17 0.14 0.14 0.11 0.07 0.14 0.24 0.31 0.50 0.72 0.70 0.34 0.21 0.10 0.00 0.00 0.00 0.05 0.17 0.06 0.05 0.09 0.14 0.23 0.12 0.15 0.06 0.05 0.04 0.01 0.04 0.02 0.02 0.02 0.01 0.00 0.01 0.01 0.02 0.06 0.08 0.13 0.20 0.24
0.19 0.12 0.13 0.13 0.06 0.14 0.31 0.36 0.57 0.98 1.13 0.61 0.35 0.17 0.05 0.03 0.03 0.01 0.11 0.11 0.13 0.24 0.31 0.32 0.21 0.26 0.13 0.07 0.02 0.05 0.08 0.06 0.03 0.05 0.01 0.02 0.04 0.07 0.14 0.21 0.31 0.29 0.19 0.14
0.19 0.14 0.15 0.16 0.10 0.21 0.44 0.49 0.51 0.99 1.35 0.77 0.33 0.21 0.06 0.09 0.08 0.04 0.16 0.33 0.31 0.35 0.31 0.20 0.07 0.02 0.04 0.06 0.09 0.13 0.06 0.03 0.06 0.10 0.06 0.23 0.22 0.33 0.42 0.38 0.27 0.15 0.09 0.04
0.20 0.16 0.21 0.23 0.27 0.55 1.28 1.21 0.57 0.86 1.06 1.40 0.68 0.30 0.12 0.14 0.16 0.11 0.09 0.18 0.49 0.65 0.36 0.14 0.03 0.02 0.11 0.26 0.14 0.02 0.00 0.01 0.11 0.16 0.13 0.22 0.32 0.34 0.22 0.20 0.13 0.04 0.01 0.00
0.21 0.20 0.31 0.41 0.66 1.21 1.66 1.13 0.61 0.56 0.95 1.62 1.07 0.46 0.17 0.11 0.13 0.11 0.12 0.16 0.25 0.36 0.39 0.32 0.16 0.09 0.32 0.41 0.16 0.01 0.00 0.01 0.04 0.05 0.10 0.20 0.20 0.19 0.14 0.06 0.01 0.00 0.00 0.00
0.27 0.26 0.36 0.68 1.57 1.96 1.59 1.24 1.26 0.79 0.80 1.08 1.12 0.46 0.22 0.07 0.07 0.08 0.05 0.09 0.12 0.17 0.21 0.21 0.19 0.16 0.28 0.31 0.04 0.00 0.00 0.00 0.00 0.01 0.03 0.09 0.04 0.01 0.01 0.00 0.00 0.00 0.01 0.04
0.46 0.62 0.99 1.29 1.47 1.36 1.13 1.64 1.84 1.45 1.31 1.34 0.88 0.42 0.29 0.13 0.09 0.08 0.08 0.12 0.22 0.17 0.10 0.08 0.13 0.11 0.15 0.10 0.01 0.00 0.00 0.01 0.02 0.00 0.00 0.00 0.00 0.00 0.01 0.01 0.03 0.05 0.04 0.00
1.06 1.28 1.53 1.67 1.59 1.37 1.01 1.54 1.77 1.80 1.59 1.23 0.61 0.32 0.48 0.16 0.12 0.19 0.23 0.33 0.29 0.21 0.04 0.05 0.08 0.04 0.01 0.00 0.00 0.00 0.00 0.01 0.01 0.01 0.02 0.04 0.05 0.07 0.07 0.06 0.03 0.00 0.00 0.00
2.18 1.93 1.74 1.45 1.60 1.19 1.31 1.47 1.28 0.90 0.56 0.38 0.19 0.11 0.28 0.26 0.23 0.37 0.42 0.37 0.21 0.19 0.03 0.11 0.08 0.02 0.01 0.01 0.01 0.01 0.01 0.01 0.01 0.01 0.02 0.06 0.11 0.06 0.01 0.00 0.00 0.00 0.00 0.00
1.91 1.32 1.17 1.36 1.45 1.32 1.23 1.21 0.84 0.31 0.11 0.05 0.04 0.03 0.12 0.31 0.27 0.38 0.48 0.29 0.20 0.12 0.03 0.10 0.08 0.02 0.01 0.02 0.02 0.01 0.01 0.01 0.04 0.08 0.08 0.05 0.01 0.00 0.00 0.00 0.00 0.00 0.00 0.00
1.59 1.51 1.79 1.78 1.93 1.50 0.94 0.47 0.23 0.11 0.04 0.04 0.02 0.05 0.08 0.21 0.26 0.50 0.48 0.50 0.37 0.15 0.19 0.10 0.04 0.03 0.02 0.03 0.03 0.03 0.02 0.03 0.02 0.02 0.02 0.02 0.00 0.00 0.00 0.00 0.00 0.00 0.00 0.00
1.55 2.00 2.11 1.79 1.45 0.84 0.44 0.13 0.05 0.05 0.06 0.05 0.03 0.07 0.09 0.17 0.26 0.51 0.62 0.64 0.32 0.35 0.17 0.08 0.12 0.11 0.09 0.05 0.03 0.01 0.02 0.02 0.03 0.04 0.01 0.00 0.00 0.00 0.00 0.00 0.00 0.00 0.00 0.00
0.88 0.92 1.04 0.91 0.56 0.31 0.19 0.12 0.08 0.09 0.10 0.10 0.15 0.25 0.23 0.25 0.47 0.52 0.44 0.42 0.31 0.22 0.24 0.34 0.32 0.10 0.01 0.00 0.00 0.01 0.01 0.01 0.00 0.00 0.00 0.00 0.00 0.00 0.00 0.00 0.00 0.00 0.00 0.00
0.35 0.42 0.43 0.36 0.29 0.31 0.25 0.22 0.21 0.23 0.27 0.28 0.33 0.34 0.36 0.44 0.33 0.26 0.27 0.28 0.27 0.33 0.17 0.14 0.09 0.08 0.02 0.00 0.00 0.00 0.00 0.00 0.00 0.00 0.00 0.00 0.00 0.00 0.01 0.01 0.01 0.02 0.01 0.01
0.33 0.23 0.17 0.15 0.15 0.19 0.20 0.21 0.23 0.22 0.22 0.22 0.21 0.18 0.21 0.23 0.23 0.19 0.18 0.23 0.15 0.05 0.04 0.09 0.06 0.03 0.01 0.01 0.02 0.02 0.00 0.00 0.01 0.01 0.00 0.01 0.01 0.03 0.04 0.04 0.02 0.01 0.01 0.02

GFSNW_prec_precacc_069.txt.gz
Total_Precipitation_Accumulation
0.25 0.23 0.20 0.20 0.17 0.23 0.37 0.25 0.11 0.04 0.03 0.16 0.10 0.02 0.00 0.00 0.00 0.00 0.00 0.00 0.00 0.00 0.00 0.00 0.00 0.00 0.00 0.00 0.00 0.00 0.00 0.00 0.00 0.01 0.00 0.00 0.00 0.00 0.01 0.01 0.02 0.01 0.03 0.01
0.35 0.33 0.30 0.26 0.19 0.23 0.26 0.35 0.25 0.42 0.07 0.07 0.02 0.00 0.00 0.00 0.00 0.00 0.00 0.00 0.00 0.00 0.00 0.00 0.00 0.00 0.00 0.00 0.00 0.00 0.00 0.00 0.00 0.00 0.00 0.01 0.00 0.00 0.00 0.00 0.00 0.01 0.03 0.00
0.44 0.39 0.43 0.28 0.21 0.24 0.35 0.35 0.37 0.63 0.25 0.01 0.00 0.00 0.00 0.00 0.00 0.00 0.00 0.00 0.00 0.00 0.00 0.00 0.00 0.00 0.00 0.00 0.00 0.00 0.00 0.00 0.00 0.00 0.00 0.00 0.00 0.00 0.00 0.00 0.00 0.00 0.00 0.00
0.50 0.45 0.50 0.32 0.24 0.32 0.70 0.62 0.20 0.16 0.12 0.02 0.01 0.00 0.00 0.00 0.00 0.00 0.00 0.00 0.00 0.00 0.00 0.00 0.00 0.00 0.00 0.00 0.00 0.00 0.00 0.00 0.00 0.00 0.00 0.00 0.00 0.00 0.00 0.00 0.00 0.00 0.00 0.00
0.53 0.47 0.57 0.39 0.31 0.52 1.00 0.68 0.16 0.04 0.02 0.00 0.01 0.01 0.00 0.00 0.00 0.00 0.00 0.00 0.00 0.00 0.00 0.00 0.00 0.00 0.00 0.00 0.00 0.00 0.00 0.00 0.00 0.00 0.00 0.00 0.00 0.00 0.00 0.00 0.00 0.00 0.00 0.00
0.55 0.45 0.55 0.48 0.51 0.89 1.00 0.41 0.07 0.03 0.04 0.02 0.01 0.00 0.00 0.00 0.00 0.00 0.00 0.00 0.00 0.00 0.00 0.00 0.00 0.00 0.00 0.00 0.00 0.00 0.00 0.00 0.01 0.01 0.00 0.01 0.01 0.00 0.00 0.00 0.00 0.00 0.00 0.00
0.56 0.45 0.47 0.54 0.57 0.73 0.47 0.15 0.11 0.21 0.10 0.04 0.00 0.00 0.00 0.00 0.00 0.00 0.00 0.00 0.00 0.00 0.00 0.01 0.00 0.00 0.00 0.01 0.02 0.01 0.00 0.00 0.01 0.01 0.02 0.07 0.00 0.00 0.00 0.00 0.00 0.00 0.00 0.00
0.52 0.41 0.39 0.47 0.40 0.46 0.39 0.18 0.21 0.34 0.18 0.03 0.01 0.00 0.00 0.00 0.00 0.00 0.00 0.00 0.00 0.00 0.01 0.04 0.06 0.03 0.04 0.04 0.04 0.02 0.00 0.00 0.01 0.02 0.03 0.02 0.00 0.00 0.00 0.00 0.00 0.00 0.00 0.02
0.49 0.35 0.30 0.28 0.24 0.35 0.36 0.30 0.30 0.56 0.42 0.05 0.01 0.02 0.00 0.00 0.02 0.03 0.06 0.03 0.03 0.01 0.02 0.04 0.05 0.04 0.01 0.00 0.00 0.00 0.00 0.01 0.02 0.03 0.05 0.04 0.00 0.00 0.00 0.00 0.01 0.01 0.04 0.09
0.44 0.27 0.19 0.17 0.15 0.30 0.41 0.39 0.44 0.78 0.62 0.15 0.02 0.02 0.01 0.00 0.02 0.07 0.04 0.13 0.11 0.12 0.14 0.15 0.04 0.01 0.01 0.01 0.01 0.01 0.01 0.01 0.01 0.01 0.04 0.01 0.00 0.00 0.01 0.14 0.17 0.06 0.12 0.17
0.35 0.20 0.15 0.14 0.11 0.23 0.39 0.43 0.55 0.79 0.75 0.20 0.19 0.04 0.01 0.01 0.03 0.08 0.05 0.07 0.10 0.17 0.22 0.15 0.04 0.02 0.01 0.02 0.01 0.01 0.03 0.09 0.10 0.07 0.16 0.06 0.00 0.03 0.15 0.18 0.08 0.08 0.07 0.06
0.30 0.20 0.18 0.15 0.10 0.19 0.39 0.44 0.60 0.61 0.97 0.38 0.29 0.10 0.01 0.00 0.00 0.06 0.10 0.05 0.04 0.10 0.10 0.07 0.05 0.02 0.02 0.00 0.02 0.00 0.01 0.01 0.02 0.04 0.03 0.00 0.00 0.03 0.02 0.04 0.10 0.07 0.07 0.09
0.30 0.25 0.21 0.16 0.10 0.19 0.36 0.40 0.68 0.87 0.85 0.44 0.29 0.17 0.04 0.00 0.00 0.05 0.17 0.06 0.05 0.09 0.14 0.25 0.15 0.16 0.06 0.05 0.04 0.02 0.05 0.03 0.03 0.03 0.01 0.00 0.01 0.01 0.02 0.06 0.08 0.13 0.20 0.24
0.33 0.21 0.19 0.17 0.10 0.18 0.36 0.43 0.72 1.15 1.26 0.79 0.47 0.31 0.16 0.08 0.04 0.01 0.11 0.11 0.13 0.24 0.32 0.36 0.25 0.27 0.13 0.07 0.03 0.05 0.08 0.07 0.04 0.05 0.01 0.02 0.04 0.07 0.14 0.21 0.31 0.29 0.19 0.14
0.30 0.19 0.20 0.21 0.14 0.28 0.55 0.56 0.61 1.13 1.53 0.89 0.42 0.34 0.18 0.18 0.15 0.06 0.16 0.33 0.31 0.35 0.33 0.25 0.11 0.04 0.06 0.08 0.09 0.13 0.06 0.03 0.06 0.10 0.06 0.23 0.22 0.33 0.42 0.38 0.27 0.15 0.09 0.04
0.25 0.20 0.25 0.28 0.35 0.71 1.52 1.40 0.65 0.94 1.24 1.54 0.80 0.40 0.27 0.31 0.34 0.26 0.11 0.18 0.50 0.66 0.37 0.16 0.04 0.03 0.12 0.27 0.14 0.02 0.00 0.02 0.11 0.16 0.13 0.22 0.32 0.34 0.22 0.20 0.13 0.04 0.01 0.00
0.24 0.23 0.36 0.52 0.78 1.32 1.84 1.21 0.63 0.60 1.10 1.87 1.25 0.58 0.28 0.32 0.31 0.24 0.16 0.18 0.26 0.37 0.40 0.33 0.18 0.10 0.32 0.41 0.16 0.01 0.00 0.01 0.04 0.05 0.10 0.20 0.20 0.19 0.14 0.06 0.01 0.00 0.00 0.00
0.32 0.34 0.51 0.85 1.64 2.02 1.67 1.29 1.28 0.82 0.93 1.34 1.35 0.55 0.28 0.36 0.27 0.22 0.12 0.14 0.17 0.21 0.23 0.21 0.20 0.23 0.35 0.36 0.04 0.00 0.00 0.00 0.00 0.01 0.03 0.09 0.04 0.01 0.01 0.00 0.00 0.00 0.01 0.04
0.57 0.79 1.21 1.53 1.56 1.40 1.18 1.75 1.89 1.52 1.44 1.50 1.01 0.55 0.34 0.31 0.35 0.25 0.33 0.21 0.29 0.21 0.15 0.10 0.16 0.16 0.19 0.12 0.02 0.01 0.01 0.02 0.02 0.01 0.00 0.00 0.00 0.00 0.01 0.01 0.03 0.05 0.04 0.00
1.29 1.54 1.76 1.87 1.64 1.42 1.20 1.80 2.10 2.03 1.74 1.33 0.71 0.43 0.59 0.29 0.25 0.29 0.48 0.62 0.35 0.27 0.09 0.11 0.12 0.05 0.01 0.00 0.00 0.01 0.01 0.01 0.01 0.01 0.02 0.04 0.05 0.07 0.07 0.06 0.03 0.00 0.00 0.00
2.35 2.02 1.83 1.54 1.71 1.40 1.55 1.70 1.49 1.05 0.65 0.41 0.20 0.15 0.45 0.57 0.39 0.48 0.64 0.74 0.45 0.22 0.05 0.14 0.11 0.02 0.01 0.01 0.01 0.01 0.01 0.01 0.01 0.01 0.02 0.06 0.11 0.06 0.01 0.00 0.00 0.01 0.01 0.01
1.97 1.45 1.33 1.60 1.55 1.47 1.36 1.34 0.99 0.38 0.12 0.05 0.05 0.04 0.17 0.80 0.66 0.59 0.69 0.46 0.40 0.18 0.03 0.11 0.08 0.02 0.01 0.03 0.02 0.01 0.01 0.01 0.04 0.08 0.08 0.05 0.01 0.02 0.02 0.02 0.03 0.05 0.07 0.08
1.86 1.72 1.97 1.88 2.00 1.62 1.01 0.52 0.34 0.16 0.05 0.05 0.03 0.06 0.11 0.46 0.70 0.83 0.78 0.66 0.47 0.20 0.22 0.11 0.04 0.03 0.02 0.03 0.03 0.03 0.02 0.03 0.02 0.02 0.03 0.03 0.04 0.04 0.05 0.06 0.09 0.09 0.07 0.04
1.85 2.17 2.16 1.83 1.49 0.88 0.47 0.15 0.09 0.06 0.06 0.06 0.04 0.09 0.14 0.27 0.45 0.71 0.87 0.81 0.36 0.35 0.18 0.08 0.12 0.11 0.09 0.05 0.03 0.01 0.02 0.03 0.04 0.06 0.06 0.06 0.07 0.10 0.12 0.11 0.10 0.07 0.04 0.02
1.12 0.97 1.09 1.00 0.60 0.35 0.27 0.17 0.12 0.11 0.11 0.12 0.16 0.28 0.27 0.29 0.55 0.55 0.46 0.44 0.32 0.22 0.25 0.35 0.32 0.11 0.02 0.01 0.00 0.01 0.04 0.06 0.08 0.08 0.07 0.08 0.08 0.07 0.08 0.09 0.07 0.04 0.01 0.01
0.54 0.56 0.63 0.48 0.37 0.44 0.35 0.28 0.30 0.29 0.32 0.31 0.35 0.39 0.39 0.47 0.33 0.26 0.27 0.28 0.27 0.34 0.19 0.16 0.11 0.11 0.04 0.03 0.03 0.05 0.08 0.11 0.13 0.11 0.10 0.10 0.11 0.11 0.08 0.05 0.02 0.02 0.01 0.01
0.47 0.48 0.39 0.28 0.28 0.43 0.36 0.32 0.34 0.30 0.27 0.26 0.22 0.20 0.22 0.24 0.23 0.20 0.19 0.25 0.17 0.08 0.07 0.11 0.08 0.06 0.04 0.05 0.07 0.09 0.09 0.11 0.13 0.12 0.10 0.07 0.06 0.04 0.05 0.04 0.02 0.01 0.01 0.02

GFSNW_prec_precacc_072.txt.gz
Total_Precipitation_Accumulation
0.28 0.26 0.24 0.25 0.20 0.26 0.42 0.29 0.17 0.06 0.05 0.19 0.14 0.03 0.00 0.00 0.00 0.00 0.00 0.00 0.00 0.00 0.00 0.00 0.00 0.00 0.00 0.00 0.00 0.00 0.00 0.00 0.00 0.01 0.00 0.00 0.00 0.00 0.01 0.01 0.02 0.01 0.03 0.01
0.38 0.36 0.34 0.31 0.23 0.25 0.31 0.39 0.28 0.49 0.12 0.10 0.04 0.01 0.00 0.00 0.00 0.00 0.00 0.00 0.00 0.00 0.00 0.00 0.00 0.00 0.00 0.00 0.00 0.00 0.00 0.00 0.00 0.00 0.00 0.01 0.00 0.00 0.00 0.00 0.00 0.01 0.03 0.00
0.47 0.42 0.48 0.35 0.28 0.27 0.37 0.40 0.44 0.74 0.33 0.01 0.00 0.01 0.01 0.00 0.00 0.00 0.00 0.00 0.00 0.00 0.00 0.00 0.00 0.00 0.00 0.00 0.00 0.00 0.00 0.00 0.00 0.00 0.00 0.00 0.00 0.00 0.00 0.00 0.00 0.00 0.00 0.00
0.57 0.51 0.58 0.46 0.38 0.39 0.74 0.69 0.26 0.21 0.16 0.04 0.01 0.00 0.00 0.00 0.00 0.00 0.00 0.00 0.00 0.00 0.00 0.00 0.00 0.00 0.00 0.00 0.00 0.00 0.00 0.00 0.00 0.00 0.00 0.00 0.00 0.00 0.00 0.00 0.00 0.00 0.00 0.00
0.64 0.59 0.71 0.58 0.51 0.66 1.06 0.74 0.16 0.04 0.02 0.01 0.01 0.02 0.01 0.00 0.00 0.00 0.00 0.00 0.00 0.00 0.00 0.00 0.00 0.00 0.00 0.00 0.00 0.00 0.00 0.00 0.00 0.00 0.00 0.00 0.00 0.00 0.00 0.00 0.00 0.00 0.00 0.00
0.71 0.60 0.74 0.72 0.74 1.11 1.16 0.44 0.07 0.04 0.05 0.03 0.02 0.01 0.00 0.00 0.00 0.00 0.00 0.00 0.00 0.00 0.00 0.00 0.00 0.00 0.00 0.00 0.00 0.00 0.00 0.00 0.01 0.01 0.00 0.01 0.01 0.00 0.00 0.00 0.00 0.00 0.00 0.00
0.69 0.68 0.71 0.77 0.79 0.90 0.52 0.16 0.11 0.22 0.10 0.06 0.01 0.00 0.00 0.00 0.00 0.00 0.00 0.00 0.00 0.00 0.00 0.01 0.00 0.00 0.00 0.01 0.02 0.01 0.00 0.00 0.01 0.01 0.02 0.07 0.00 0.00 0.00 0.00 0.00 0.00 0.00 0.00
0.57 0.64 0.67 0.69 0.56 0.53 0.40 0.18 0.21 0.35 0.19 0.03 0.02 0.00 0.00 0.01 0.01 0.00 0.00 0.00 0.00 0.00 0.01 0.04 0.07 0.04 0.04 0.04 0.04 0.02 0.00 0.00 0.01 0.02 0.03 0.02 0.00 0.00 0.00 0.00 0.00 0.00 0.00 0.02
0.52 0.51 0.58 0.45 0.35 0.40 0.39 0.30 0.30 0.57 0.43 0.06 0.01 0.04 0.01 0.01 0.03 0.05 0.06 0.03 0.03 0.01 0.02 0.04 0.05 0.05 0.02 0.00 0.00 0.00 0.00 0.01 0.02 0.03 0.05 0.04 0.00 0.00 0.00 0.00 0.01 0.01 0.04 0.09
0.49 0.39 0.40 0.31 0.23 0.36 0.45 0.39 0.44 0.78 0.63 0.16 0.06 0.08 0.05 0.00 0.03 0.09 0.05 0.14 0.11 0.12 0.14 0.15 0.04 0.01 0.01 0.01 0.01 0.01 0.01 0.01 0.01 0.01 0.04 0.01 0.00 0.00 0.01 0.14 0.17 0.06 0.12 0.17
0.43 0.30 0.29 0.27 0.19 0.29 0.42 0.43 0.55 0.79 0.76 0.22 0.23 0.09 0.09 0.02 0.05 0.09 0.05 0.08 0.10 0.17 0.22 0.15 0.04 0.02 0.01 0.02 0.01 0.01 0.03 0.09 0.10 0.07 0.16 0.06 0.00 0.03 0.15 0.18 0.08 0.08 0.07 0.06
0.38 0.29 0.28 0.28 0.18 0.24 0.40 0.45 0.60 0.61 0.98 0.41 0.33 0.15 0.04 0.09 0.01 0.07 0.11 0.05 0.04 0.10 0.10 0.07 0.05 0.02 0.02 0.00 0.02 0.00 0.01 0.01 0.03 0.04 0.03 0.00 0.00 0.03 0.02 0.04 0.10 0.07 0.07 0.09
0.37 0.33 0.31 0.28 0.19 0.24 0.38 0.40 0.68 0.88 0.86 0.44 0.29 0.22 0.06 0.04 0.03 0.05 0.18 0.06 0.05 0.09 0.14 0.25 0.15 0.16 0.06 0.05 0.04 0.02 0.05 0.03 0.03 0.03 0.01 0.00 0.01 0.01 0.02 0.06 0.08 0.13 0.20 0.24
0.41 0.31 0.32 0.28 0.19 0.26 0.38 0.43 0.72 1.16 1.27 0.80 0.47 0.37 0.22 0.09 0.06 0.01 0.11 0.11 0.13 0.24 0.32 0.36 0.25 0.27 0.13 0.07 0.03 0.05 0.08 0.07 0.04 0.05 0.01 0.03 0.04 0.08 0.14 0.21 0.31 0.29 0.19 0.14
0.40 0.33 0.34 0.34 0.26 0.35 0.56 0.56 0.61 1.13 1.56 0.95 0.43 0.38 0.28 0.23 0.18 0.07 0.16 0.33 0.32 0.37 0.34 0.25 0.11 0.04 0.06 0.08 0.09 0.13 0.06 0.03 0.06 0.10 0.07 0.23 0.22 0.33 0.42 0.38 0.27 0.15 0.09 0.04
0.40 0.34 0.41 0.42 0.47 0.76 1.53 1.43 0.66 0.95 1.27 1.68 0.87 0.43 0.35 0.43 0.41 0.29 0.12 0.18 0.50 0.68 0.38 0.16 0.04 0.03 0.12 0.27 0.14 0.02 0.00 0.02 0.12 0.17 0.14 0.22 0.32 0.34 0.22 0.20 0.13 0.04 0.01 0.00
0.35 0.36 0.48 0.63 0.83 1.33 1.85 1.23 0.63 0.60 1.16 2.00 1.41 0.67 0.34 0.55 0.44 0.33 0.21 0.19 0.27 0.39 0.43 0.33 0.19 0.10 0.32 0.41 0.16 0.01 0.00 0.01 0.05 0.06 0.10 0.20 0.20 0.19 0.14 0.06 0.01 0.00 0.00 0.00
0.38 0.40 0.55 0.86 1.65 2.04 1.69 1.31 1.28 0.82 0.96 1.41 1.49 0.82 0.50 0.75 0.42 0.31 0.18 0.18 0.20 0.22 0.24 0.21 0.21 0.23 0.35 0.36 0.04 0.00 0.00 0.00 0.00 0.01 0.03 0.09 0.04 0.01 0.01 0.00 0.00 0.00 0.01 0.04
0.58 0.80 1.23 1.55 1.61 1.46 1.21 1.77 1.90 1.54 1.47 1.58 1.10 0.87 0.65 0.56 0.54 0.30 0.37 0.26 0.33 0.22 0.15 0.10 0.17 0.16 0.20 0.12 0.02 0.01 0.01 0.02 0.02 0.01 0.00 0.00 0.00 0.00 0.01 0.01 0.03 0.05 0.04 0.00
1.31 1.55 1.81 1.92 1.69 1.47 1.29 1.88 2.16 2.07 1.76 1.36 0.80 0.69 1.02 0.64 0.68 0.47 0.55 0.66 0.37 0.28 0.09 0.11 0.12 0.05 0.01 0.00 0.00 0.01 0.01 0.01 0.01 0.01 0.02 0.04 0.05 0.07 0.07 0.06 0.03 0.00 0.00 0.01
2.39 2.07 1.86 1.57 1.83 1.47 1.60 1.75 1.56 1.10 0.67 0.42 0.21 0.22 0.70 0.98 0.82 0.67 0.75 0.85 0.53 0.25 0.06 0.15 0.11 0.02 0.01 0.01 0.01 0.01 0.01 0.01 0.01 0.01 0.02 0.06 0.11 0.06 0.01 0.00 0.01 0.02 0.03 0.04
2.04 1.53 1.38 1.74 1.62 1.47 1.39 1.43 1.01 0.40 0.13 0.06 0.06 0.05 0.27 0.95 0.91 0.76 0.79 0.59 0.63 0.34 0.05 0.11 0.08 0.02 0.01 0.03 0.02 0.01 0.01 0.01 0.04 0.08 0.08 0.05 0.01 0.02 0.02 0.02 0.04 0.06 0.09 0.14
1.91 1.76 2.01 1.91 2.00 1.63 1.06 0.59 0.35 0.16 0.05 0.05 0.04 0.06 0.11 0.46 0.72 0.86 0.80 0.70 0.56 0.31 0.28 0.13 0.05 0.03 0.03 0.04 0.03 0.03 0.02 0.03 0.02 0.02 0.03 0.03 0.04 0.04 0.05 0.07 0.11 0.14 0.16 0.15
1.87 2.19 2.17 1.84 1.50 0.90 0.48 0.16 0.09 0.06 0.06 0.06 0.04 0.09 0.14 0.27 0.46 0.72 0.94 0.94 0.48 0.43 0.21 0.12 0.15 0.13 0.11 0.06 0.03 0.01 0.02 0.03 0.04 0.06 0.06 0.06 0.07 0.10 0.13 0.15 0.16 0.13 0.12 0.12
1.19 0.98 1.10 1.00 0.61 0.40 0.31 0.18 0.12 0.11 0.11 0.12 0.16 0.28 0.27 0.31 0.60 0.62 0.54 0.56 0.43 0.30 0.28 0.37 0.34 0.12 0.03 0.02 0.01 0.02 0.04 0.06 0.08 0.09 0.09 0.10 0.10 0.10 0.14 0.17 0.15 0.08 0.04 0.03
0.59 0.61 0.68 0.51 0.39 0.48 0.39 0.30 0.31 0.29 0.33 0.32 0.36 0.41 0.41 0.53 0.40 0.32 0.29 0.28 0.28 0.36 0.22 0.18 0.13 0.13 0.07 0.06 0.07 0.09 0.12 0.15 0.18 0.17 0.15 0.14 0.16 0.15 0.12 0.07 0.03 0.03 0.04 0.04
0.56 0.58 0.46 0.31 0.33 0.47 0.40 0.36 0.38 0.35 0.32 0.30 0.25 0.24 0.26 0.30 0.26 0.22 0.21 0.27 0.20 0.11 0.10 0.14 0.12 0.10 0.10 0.11 0.12 0.14 0.14 0.16 0.17 0.15 0.12 0.09 0.07 0.05 0.05 0.04 0.02 0.02 0.01 0.02

GFSNW_prec_precacc_075.txt.gz
Total_Precipitation_Accumulation
0.29 0.28 0.26 0.27 0.23 0.31 0.52 0.41 0.25 0.07 0.07 0.23 0.20 0.07 0.00 0.00 0.00 0.00 0.00 0.00 0.00 0.00 0.00 0.00 0.00 0.00 0.00 0.00 0.00 0.00 0.00 0.00 0.00 0.01 0.00 0.00 0.00 0.00 0.01 0.01 0.02 0.01 0.03 0.01
0.40 0.38 0.36 0.33 0.27 0.34 0.48 0.58 0.34 0.54 0.16 0.12 0.05 0.01 0.01 0.00 0.00 0.00 0.00 0.00 0.00 0.00 0.00 0.00 0.00 0.00 0.00 0.00 0.00 0.00 0.00 0.00 0.00 0.00 0.00 0.01 0.00 0.00 0.00 0.00 0.00 0.01 0.04 0.01
0.50 0.45 0.50 0.38 0.35 0.39 0.54 0.55 0.53 0.81 0.40 0.02 0.00 0.01 0.01 0.00 0.00 0.00 0.00 0.00 0.00 0.00 0.00 0.00 0.00 0.00 0.00 0.00 0.00 0.00 0.00 0.00 0.00 0.00 0.00 0.00 0.00 0.00 0.00 0.00 0.00 0.00 0.00 0.00
0.64 0.57 0.63 0.53 0.49 0.56 0.98 0.83 0.28 0.22 0.19 0.05 0.01 0.00 0.00 0.00 0.00 0.00 0.00 0.00 0.00 0.00 0.00 0.00 0.00 0.00 0.00 0.00 0.00 0.00 0.00 0.00 0.00 0.00 0.00 0.00 0.00 0.00 0.00 0.00 0.00 0.00 0.00 0.00
0.73 0.70 0.83 0.72 0.69 0.93 1.37 0.83 0.17 0.05 0.02 0.01 0.02 0.03 0.01 0.00 0.00 0.00 0.00 0.00 0.00 0.00 0.00 0.00 0.00 0.00 0.00 0.00 0.00 0.00 0.00 0.00 0.00 0.00 0.00 0.00 0.00 0.00 0.00 0.00 0.00 0.00 0.00 0.00
0.76 0.72 0.90 0.93 1.03 1.52 1.63 0.51 0.07 0.04 0.05 0.04 0.03 0.01 0.00 0.00 0.00 0.00 0.00 0.00 0.00 0.00 0.00 0.00 0.00 0.00 0.00 0.00 0.00 0.00 0.00 0.00 0.01 0.01 0.00 0.01 0.01 0.00 0.00 0.00 0.00 0.00 0.00 0.00
0.72 0.76 0.89 1.02 1.12 1.34 0.78 0.19 0.12 0.24 0.12 0.07 0.01 0.00 0.00 0.00 0.00 0.00 0.00 0.00 0.00 0.00 0.00 0.02 0.01 0.01 0.00 0.01 0.02 0.01 0.00 0.00 0.01 0.01 0.02 0.07 0.00 0.00 0.00 0.00 0.00 0.00 0.00 0.00
0.59 0.69 0.84 0.98 0.92 0.87 0.49 0.19 0.22 0.36 0.21 0.03 0.02 0.01 0.00 0.01 0.01 0.00 0.00 0.00 0.00 0.00 0.01 0.04 0.07 0.06 0.06 0.04 0.04 0.02 0.00 0.00 0.02 0.02 0.03 0.02 0.00 0.00 0.00 0.00 0.00 0.00 0.00 0.02
0.55 0.52 0.72 0.74 0.70 0.67 0.46 0.30 0.30 0.57 0.44 0.06 0.01 0.05 0.02 0.02 0.04 0.05 0.07 0.03 0.03 0.01 0.02 0.05 0.05 0.05 0.03 0.01 0.02 0.00 0.00 0.01 0.04 0.04 0.05 0.04 0.00 0.00 0.00 0.00 0.01 0.01 0.04 0.09
0.51 0.42 0.46 0.61 0.51 0.56 0.55 0.43 0.45 0.79 0.64 0.16 0.06 0.09 0.08 0.02 0.04 0.10 0.07 0.16 0.14 0.14 0.15 0.16 0.04 0.01 0.01 0.01 0.03 0.03 0.01 0.01 0.02 0.03 0.05 0.01 0.00 0.00 0.01 0.14 0.17 0.06 0.12 0.17
0.46 0.32 0.31 0.44 0.42 0.44 0.55 0.49 0.56 0.80 0.78 0.24 0.26 0.10 0.12 0.07 0.07 0.12 0.07 0.15 0.14 0.20 0.24 0.16 0.04 0.02 0.01 0.02 0.01 0.02 0.04 0.12 0.12 0.10 0.18 0.06 0.00 0.03 0.15 0.18 0.08 0.08 0.07 0.06
0.41 0.31 0.29 0.34 0.33 0.40 0.52 0.48 0.61 0.62 1.01 0.45 0.36 0.17 0.08 0.12 0.02 0.09 0.14 0.07 0.04 0.10 0.11 0.08 0.06 0.03 0.02 0.00 0.02 0.00 0.01 0.02 0.06 0.06 0.03 0.00 0.00 0.03 0.02 0.04 0.10 0.07 0.07 0.09
0.39 0.35 0.33 0.32 0.31 0.44 0.48 0.43 0.69 0.89 0.89 0.47 0.29 0.22 0.06 0.07 0.07 0.07 0.26 0.09 0.05 0.09 0.14 0.25 0.15 0.16 0.06 0.05 0.04 0.02 0.05 0.03 0.03 0.03 0.01 0.00 0.01 0.01 0.02 0.06 0.08 0.13 0.20 0.24
0.42 0.32 0.33 0.34 0.37 0.45 0.45 0.44 0.73 1.16 1.28 0.81 0.47 0.37 0.22 0.09 0.09 0.02 0.12 0.14 0.14 0.24 0.32 0.40 0.26 0.27 0.13 0.07 0.03 0.05 0.08 0.07 0.04 0.05 0.01 0.03 0.04 0.08 0.14 0.21 0.31 0.29 0.19 0.14
0.41 0.35 0.40 0.48 0.50 0.57 0.62 0.57 0.62 1.13 1.56 0.96 0.44 0.38 0.28 0.24 0.19 0.09 0.16 0.35 0.37 0.39 0.37 0.26 0.12 0.04 0.06 0.08 0.09 0.13 0.06 0.03 0.06 0.10 0.07 0.23 0.22 0.33 0.42 0.38 0.27 0.15 0.09 0.04
0.44 0.41 0.55 0.71 0.78 0.89 1.54 1.48 0.70 0.95 1.27 1.69 0.90 0.45 0.35 0.44 0.41 0.30 0.12 0.19 0.56 0.72 0.39 0.18 0.04 0.03 0.12 0.27 0.14 0.02 0.00 0.02 0.12 0.17 0.14 0.22 0.32 0.34 0.22 0.20 0.13 0.04 0.01 0.00
0.44 0.50 0.72 0.85 0.91 1.34 1.86 1.26 0.65 0.60 1.17 2.01 1.42 0.69 0.37 0.56 0.45 0.35 0.25 0.22 0.31 0.46 0.50 0.37 0.21 0.11 0.32 0.41 0.16 0.01 0.00 0.01 0.05 0.06 0.10 0.20 0.20 0.19 0.14 0.06 0.01 0.00 0.00 0.00
0.53 0.58 0.65 0.89 1.66 2.07 1.70 1.34 1.28 0.82 0.96 1.42 1.50 0.84 0.67 0.89 0.53 0.36 0.24 0.24 0.27 0.25 0.31 0.26 0.25 0.26 0.37 0.36 0.04 0.00 0.00 0.00 0.00 0.01 0.03 0.09 0.04 0.01 0.01 0.00 0.00 0.00 0.01 0.04
0.69 0.89 1.32 1.67 1.68 1.49 1.23 1.78 1.91 1.54 1.48 1.59 1.10 0.90 1.01 1.13 0.85 0.41 0.46 0.38 0.40 0.26 0.18 0.13 0.22 0.18 0.21 0.12 0.02 0.01 0.01 0.02 0.02 0.01 0.00 0.00 0.00 0.00 0.01 0.01 0.03 0.05 0.04 0.00
1.36 1.61 1.86 2.00 1.72 1.49 1.33 1.93 2.21 2.10 1.78 1.40 0.81 0.71 1.18 1.11 1.22 0.62 0.62 0.75 0.43 0.29 0.10 0.13 0.15 0.07 0.02 0.00 0.00 0.01 0.01 0.01 0.01 0.01 0.02 0.04 0.05 0.07 0.07 0.06 0.03 0.00 0.00 0.01
2.39 2.07 1.88 1.59 1.88 1.60 1.70 1.80 1.61 1.13 0.68 0.43 0.22 0.25 0.84 1.25 1.35 0.86 0.88 0.91 0.59 0.28 0.08 0.18 0.12 0.03 0.02 0.01 0.01 0.01 0.01 0.01 0.01 0.01 0.02 0.06 0.11 0.06 0.01 0.00 0.01 0.02 0.04 0.05
2.05 1.54 1.43 1.88 1.76 1.56 1.41 1.44 1.02 0.41 0.14 0.07 0.07 0.12 0.39 1.24 1.43 1.04 0.94 0.66 0.66 0.36 0.07 0.13 0.09 0.02 0.01 0.03 0.02 0.01 0.01 0.01 0.04 0.08 0.08 0.05 0.01 0.02 0.02 0.02 0.04 0.06 0.10 0.16
1.94 1.79 2.07 1.96 2.02 1.63 1.07 0.61 0.35 0.16 0.06 0.07 0.09 0.20 0.22 0.66 1.21 1.23 0.90 0.78 0.62 0.38 0.34 0.15 0.06 0.03 0.03 0.04 0.03 0.03 0.02 0.03 0.02 0.02 0.03 0.03 0.04 0.04 0.05 0.07 0.12 0.16 0.20 0.22
1.89 2.20 2.17 1.84 1.50 0.91 0.49 0.18 0.10 0.07 0.07 0.07 0.10 0.21 0.26 0.41 0.64 0.85 1.03 1.06 0.63 0.59 0.34 0.19 0.19 0.14 0.12 0.07 0.03 0.02 0.02 0.03 0.04 0.06 0.06 0.06 0.07 0.10 0.15 0.17 0.19 0.15 0.15 0.18
1.20 0.98 1.10 1.00 0.61 0.40 0.32 0.18 0.12 0.11 0.12 0.12 0.17 0.31 0.34 0.36 0.63 0.66 0.64 0.72 0.58 0.39 0.34 0.43 0.40 0.17 0.09 0.08 0.08 0.09 0.09 0.09 0.10 0.11 0.10 0.12 0.12 0.11 0.16 0.20 0.18 0.09 0.06 0.06
0.60 0.61 0.69 0.51 0.42 0.54 0.43 0.31 0.31 0.30 0.33 0.32 0.37 0.43 0.49 0.57 0.42 0.37 0.38 0.33 0.32 0.41 0.28 0.25 0.17 0.17 0.12 0.11 0.12 0.14 0.17 0.19 0.21 0.20 0.17 0.17 0.18 0.16 0.14 0.11 0.06 0.07 0.06 0.07
0.56 0.59 0.47 0.33 0.37 0.53 0.46 0.38 0.40 0.38 0.35 0.31 0.27 0.27 0.31 0.33 0.30 0.29 0.23 0.30 0.24 0.15 0.15 0.18 0.16 0.14 0.14 0.16 0.17 0.19 0.19 0.20 0.20 0.17 0.13 0.10 0.08 0.05 0.06 0.05 0.04 0.03 0.02 0.02